Regional Weather Roundup
Issued by NWS

Home | Current Version | Previous Version | Graphics & Text | Print | Product List | Glossary On
Versions: 1 2 3 4 5 6 7 8 9 10 11 12 13 14 15 16 17 18 19 20 21 22 23 24 25 26 27 28 29 30 31 32 33 34 35 36 37 38 39 40 41 42 43 44 45 46 47 48 49 50
000
ASUS43 KLMK 250910
RWRKY
KENTUCKY REGIONAL WEATHER ROUNDUP
NATIONAL WEATHER SERVICE LOUISVILLE KY
400 AM EST SUN FEB 25 2018

NOTE "FAIR" INDICATES FEW OR NO CLOUDS BELOW 12,000 FEET
WITH NO SIGNIFICANT WEATHER AND/OR OBSTRUCTIONS TO VISIBILITY.

KYZ001>023-026-027-061>063-070>075-251000-
WESTERN AND SOUTH CENTRAL KENTUCKY

CITY           SKY/WX    TMP DP  RH WIND       PRES   REMARKS
PADUCAH        FAIR      49  40  71 W9G18     29.94R
HENDERSON      FAIR      49  40  71 W17G32    29.91R
OWENSBORO      CLOUDY    50  43  76 NW28      29.90R
HOPKINSVILLE   FAIR      56  55  94 W18G24    29.88R
BOWLING GREEN  CLOUDY    57  54  89 SW14G22   29.88R
GLASGOW        LGT RAIN N/A N/A N/A SW10      29.88S
$$

KYZ024-025-028>034-038-045-046-053-251000-
NORTH CENTRAL KENTUCKY

CITY           SKY/WX    TMP DP  RH WIND       PRES   REMARKS
LOUISVILLE/SDF LGT RAIN  61  56  83 SW15G23   29.78R
LOUISVILLE/LOU CLOUDY    61  58  90 S14       29.78R
FORT KNOX      CLOUDY    59  57  94 SW13G20   29.79F
$$

KYZ035>037-039>044-047>052-055>060-089>105-251000-
NORTHEAST KENTUCKY

CITY           SKY/WX    TMP DP  RH WIND       PRES   REMARKS
LEXINGTON      CLOUDY    58  54  86 S20G26    29.83R
COVINGTON      CLOUDY    59  57  93 SW12G22   29.72R
FRANKFORT      CLOUDY    60  54  80 S15       29.77F
$$

KYZ054-064>069-076>088-106>120-251000-
SOUTHEAST KENTUCKY

CITY           SKY/WX    TMP DP  RH WIND       PRES   REMARKS
JACKSON        RAIN      57  56  96 SW6       29.89R FOG
LONDON         RAIN      56  54  93 SW8G17    29.91R FOG
SOMERSET       RAIN      54  54 100 W6        29.93R
MIDDLESBORO    HVY RAIN  58  56  92 W3        29.94R
MONTICELLO     LGT RAIN  55  54  96 W15       29.94R
$$




USA.gov is the U.S. government's official web portal to all federal, state and local government web resources and services.